User: anonymous   Login
Location: Caltech
(34.1382°N, 118.1253°W)
Time: 01:16:31
(UTC-08:00)
Language:

KITSAT 1 - Orbit

View from above orbital plane
View from above orbital plane
View from above satellite
View from above satellite

Ground track
Ground track

The orbit data is extracted from the following two-line orbital elements,

1 22077U 92052B   18051.74906446 -.00000039 +00000-0 +89471-4 0  9997
2 22077 066.0851 165.9011 0015656 266.9150 204.8488 12.86522284198991
Epoch (UTC): 20 February 2018 17:58:39
Eccentricity: 0.0015656
inclination: 66.0851°
perigee height: 1303 km
apogee height: 1327 km
right ascension of ascending node: 165.9011°
argument of perigee: 266.9150°
revolutions per day: 12.86522284
mean anomaly at epoch: 204.8488°
orbit number at epoch: 19899

The dashed part of the orbit path shows where the satellite is in the earth's shadow,  

DLR